ANZ654 NZQN-NZCH

Flight info

Callsign ANZ654
Flight time 0h 35m
Altitude 23000
Route QN Q787 TIMJO Y153 DOPKI
Aircraft A21N/M-SDE2E3FGHIRWXY/LB1

Departure

Time 2026-04-29 21:30
Airport Queenstown Airport (NZQN)

Arrival

Time 2026-04-29 22:06
Airport Christchurch International Airport (NZCH)
Time Latitude Longitude Altitude Speed Heading
2026-04-29 21:23 -45.02222 168.74209 1167 ft 0 kts 341°
2026-04-29 21:25 -45.02221 168.74209 1169 ft 1 kts 341°
2026-04-29 21:25 -45.02206 168.74201 1167 ft 4 kts 341°
2026-04-29 21:25 -45.02170 168.74184 1166 ft 7 kts 341°
2026-04-29 21:25 -45.02123 168.74140 1166 ft 10 kts 302°
2026-04-29 21:26 -45.02083 168.74045 1166 ft 12 kts 297°
2026-04-29 21:26 -45.02038 168.74007 1168 ft 7 kts 357°
2026-04-29 21:26 -45.02029 168.74009 1169 ft 0 kts 22°
2026-04-29 21:27 -45.02014 168.74018 1169 ft 4 kts 21°
2026-04-29 21:27 -45.01971 168.74040 1172 ft 9 kts
2026-04-29 21:27 -45.01937 168.73977 1172 ft 9 kts 262°
2026-04-29 21:27 -45.01952 168.73875 1174 ft 12 kts 257°
2026-04-29 21:28 -45.01972 168.73751 1171 ft 14 kts 257°
2026-04-29 21:28 -45.01999 168.73614 1169 ft 15 kts 244°
2026-04-29 21:28 -45.02021 168.73529 1171 ft 2 kts 281°
2026-04-29 21:28 -45.02011 168.73524 1167 ft 3 kts
2026-04-29 21:29 -45.02000 168.73553 1172 ft 0 kts 81°
2026-04-29 21:29 -45.01990 168.73638 1173 ft 39 kts 81°
2026-04-29 21:30 -45.01864 168.74433 1174 ft 123 kts 77°
2026-04-29 21:30 -45.01651 168.75830 1518 ft 150 kts 77°
2026-04-29 21:30 -45.01352 168.77249 2267 ft 155 kts 57°
2026-04-29 21:30 -45.00504 168.78178 2933 ft 161 kts 20°
2026-04-29 21:31 -44.99271 168.78359 3325 ft 193 kts
2026-04-29 21:31 -44.97982 168.79162 3873 ft 221 kts 39°
2026-04-29 21:31 -44.96886 168.80897 4483 ft 248 kts 52°
2026-04-29 21:31 -44.95807 168.82894 5375 ft 260 kts 53°
2026-04-29 21:32 -44.94702 168.84962 6336 ft 267 kts 52°
2026-04-29 21:32 -44.93548 168.87064 7274 ft 275 kts 51°
2026-04-29 21:32 -44.92363 168.89212 8206 ft 281 kts 52°
2026-04-29 21:32 -44.91163 168.91382 9172 ft 286 kts 52°
2026-04-29 21:33 -44.89923 168.93615 10162 ft 292 kts 52°
2026-04-29 21:33 -44.88619 168.95969 10689 ft 317 kts 52°
2026-04-29 21:33 -44.87202 168.98526 11066 ft 343 kts 52°
2026-04-29 21:33 -44.85696 169.01231 11712 ft 356 kts 52°
2026-04-29 21:34 -44.84156 169.04001 12579 ft 362 kts 52°
2026-04-29 21:34 -44.82590 169.06809 13472 ft 367 kts 52°
2026-04-29 21:34 -44.80998 169.09658 14353 ft 372 kts 52°
2026-04-29 21:34 -44.79384 169.12555 15144 ft 378 kts 52°
2026-04-29 21:35 -44.77750 169.15478 15931 ft 382 kts 52°
2026-04-29 21:35 -44.76094 169.18430 16727 ft 386 kts 52°
2026-04-29 21:35 -44.74420 169.21416 17499 ft 391 kts 52°
2026-04-29 21:35 -44.72730 169.24433 18267 ft 395 kts 52°
2026-04-29 21:36 -44.71018 169.27483 19003 ft 399 kts 53°
2026-04-29 21:36 -44.69311 169.30526 19631 ft 404 kts 53°
2026-04-29 21:36 -44.67560 169.33638 20256 ft 408 kts 53°
2026-04-29 21:36 -44.65788 169.36782 20878 ft 412 kts 53°
2026-04-29 21:37 -44.63996 169.39966 21507 ft 417 kts 53°
2026-04-29 21:37 -44.62187 169.43173 22116 ft 421 kts 53°
2026-04-29 21:37 -44.60355 169.46411 22725 ft 425 kts 53°
2026-04-29 21:37 -44.58505 169.49677 23330 ft 430 kts 54°
2026-04-29 21:38 -44.56634 169.52980 23663 ft 433 kts 54°
2026-04-29 21:38 -44.54803 169.56205 23727 ft 412 kts 54°
2026-04-29 21:38 -44.53045 169.59300 23711 ft 403 kts 54°
2026-04-29 21:38 -44.51303 169.62365 23690 ft 401 kts 54°
2026-04-29 21:39 -44.49566 169.65421 23696 ft 401 kts 54°
2026-04-29 21:39 -44.47830 169.68476 23696 ft 401 kts 54°
2026-04-29 21:39 -44.46136 169.71575 23689 ft 399 kts 59°
2026-04-29 21:39 -44.44752 169.74928 23704 ft 397 kts 64°
2026-04-29 21:40 -44.43444 169.78342 23701 ft 397 kts 65°
2026-04-29 21:40 -44.42157 169.81702 23713 ft 397 kts 65°
2026-04-29 21:40 -44.40833 169.85144 23708 ft 396 kts 65°
2026-04-29 21:40 -44.39527 169.88527 23707 ft 396 kts 65°
2026-04-29 21:41 -44.38229 169.91877 23707 ft 396 kts 65°
2026-04-29 21:41 -44.36915 169.95262 23707 ft 396 kts 65°
2026-04-29 21:41 -44.35600 169.98648 23709 ft 396 kts 65°
2026-04-29 21:41 -44.34282 170.02038 23708 ft 396 kts 65°
2026-04-29 21:42 -44.32968 170.05412 23707 ft 396 kts 65°
2026-04-29 21:42 -44.31652 170.08799 23706 ft 396 kts 65°
2026-04-29 21:42 -44.30340 170.12174 23706 ft 396 kts 64°
2026-04-29 21:42 -44.29021 170.15542 23707 ft 396 kts 64°
2026-04-29 21:43 -44.27695 170.18920 23712 ft 396 kts 65°
2026-04-29 21:43 -44.26377 170.22283 23708 ft 396 kts 65°
2026-04-29 21:43 -44.25054 170.25654 23702 ft 396 kts 65°
2026-04-29 21:43 -44.23731 170.29021 23702 ft 396 kts 65°
2026-04-29 21:44 -44.22407 170.32388 23707 ft 396 kts 65°
2026-04-29 21:44 -44.21083 170.35752 23707 ft 396 kts 65°
2026-04-29 21:44 -44.19759 170.39116 23706 ft 395 kts 64°
2026-04-29 21:44 -44.18434 170.42473 23706 ft 395 kts 64°
2026-04-29 21:45 -44.17108 170.45827 23704 ft 395 kts 64°
2026-04-29 21:45 -44.15798 170.49144 23697 ft 395 kts 64°
2026-04-29 21:45 -44.14471 170.52500 23697 ft 395 kts 64°
2026-04-29 21:45 -44.13146 170.55847 23710 ft 395 kts 65°
2026-04-29 21:46 -44.11819 170.59197 23706 ft 395 kts 64°
2026-04-29 21:46 -44.10489 170.62543 23702 ft 395 kts 64°
2026-04-29 21:46 -44.09155 170.65890 23697 ft 395 kts 64°
2026-04-29 21:46 -44.07828 170.69212 23540 ft 390 kts 64°
2026-04-29 21:47 -44.06485 170.72584 23262 ft 402 kts 64°
2026-04-29 21:47 -44.05127 170.75984 22999 ft 402 kts 64°
2026-04-29 21:47 -44.03778 170.79368 22725 ft 399 kts 64°
2026-04-29 21:47 -44.02433 170.82734 22453 ft 398 kts 64°
2026-04-29 21:48 -44.01091 170.86084 22262 ft 396 kts 64°
2026-04-29 21:48 -43.99754 170.89415 21928 ft 394 kts 64°
2026-04-29 21:48 -43.98419 170.92733 21684 ft 394 kts 64°
2026-04-29 21:48 -43.97089 170.96050 21298 ft 390 kts 64°
2026-04-29 21:49 -43.95771 170.99327 20826 ft 388 kts 64°
2026-04-29 21:49 -43.94456 171.02581 20330 ft 386 kts 64°
2026-04-29 21:49 -43.93143 171.05831 19862 ft 384 kts 64°
2026-04-29 21:49 -43.91840 171.09048 19399 ft 383 kts 64°
2026-04-29 21:50 -43.90538 171.12266 18964 ft 383 kts 64°
2026-04-29 21:50 -43.89237 171.15488 18463 ft 383 kts 64°
2026-04-29 21:50 -43.87931 171.18710 17982 ft 383 kts 63°
2026-04-29 21:50 -43.86624 171.21927 17515 ft 383 kts 63°
2026-04-29 21:51 -43.85335 171.25095 17062 ft 382 kts 63°
2026-04-29 21:51 -43.84030 171.28300 16613 ft 381 kts 63°
2026-04-29 21:51 -43.81431 171.34695 15758 ft 379 kts 63°
2026-04-29 21:52 -43.80137 171.37861 15333 ft 376 kts 63°
2026-04-29 21:52 -43.78857 171.40989 14889 ft 370 kts 63°
2026-04-29 21:52 -43.77596 171.44069 14355 ft 367 kts 63°
2026-04-29 21:52 -43.76334 171.47153 13530 ft 371 kts 63°
2026-04-29 21:53 -43.75069 171.50253 12926 ft 369 kts 63°
2026-04-29 21:53 -43.73811 171.53315 12440 ft 363 kts 62°
2026-04-29 21:53 -43.72570 171.56328 11982 ft 358 kts 62°
2026-04-29 21:53 -43.71352 171.59297 11544 ft 352 kts 62°
2026-04-29 21:54 -43.70190 171.62249 11136 ft 348 kts 68°
2026-04-29 21:54 -43.69636 171.65436 10791 ft 336 kts 91°
2026-04-29 21:54 -43.69758 171.68592 10604 ft 322 kts 98°
2026-04-29 21:54 -43.69953 171.71607 10223 ft 309 kts 98°
2026-04-29 21:55 -43.70119 171.74507 9853 ft 296 kts 97°
2026-04-29 21:55 -43.70266 171.77310 9289 ft 291 kts 96°
2026-04-29 21:55 -43.70399 171.80061 8665 ft 289 kts 96°
2026-04-29 21:55 -43.70523 171.82799 8230 ft 281 kts 96°
2026-04-29 21:56 -43.70640 171.85466 7886 ft 276 kts 95°
2026-04-29 21:56 -43.70755 171.88106 7620 ft 274 kts 95°
2026-04-29 21:56 -43.70866 171.90732 7340 ft 273 kts 95°
2026-04-29 21:56 -43.70976 171.93353 7027 ft 274 kts 95°
2026-04-29 21:57 -43.71085 171.95987 6686 ft 275 kts 95°
2026-04-29 21:57 -43.71193 171.98627 6363 ft 274 kts 95°
2026-04-29 21:57 -43.71281 172.01248 6047 ft 272 kts 91°
2026-04-29 21:57 -43.71008 172.03825 5709 ft 271 kts 78°
2026-04-29 21:58 -43.70520 172.06352 5339 ft 273 kts 76°
2026-04-29 21:58 -43.70022 172.08874 4948 ft 272 kts 77°
2026-04-29 21:58 -43.69531 172.11382 4576 ft 269 kts 77°
2026-04-29 21:58 -43.69053 172.13838 4217 ft 261 kts 77°
2026-04-29 21:59 -43.68590 172.16225 3879 ft 254 kts 77°
2026-04-29 21:59 -43.68138 172.18553 3536 ft 247 kts 77°
2026-04-29 21:59 -43.67744 172.20806 3207 ft 242 kts 78°
2026-04-29 21:59 -43.67370 172.23045 2850 ft 236 kts 78°
2026-04-29 22:00 -43.67003 172.25212 2546 ft 227 kts 78°
2026-04-29 22:00 -43.66643 172.27298 2270 ft 220 kts 78°
2026-04-29 22:00 -43.66287 172.29331 2022 ft 215 kts 78°
2026-04-29 22:00 -43.65922 172.31272 1948 ft 204 kts 74°
2026-04-29 22:01 -43.65376 172.33072 1952 ft 204 kts 62°
2026-04-29 22:01 -43.64570 172.34689 1972 ft 205 kts 51°
2026-04-29 22:01 -43.63596 172.36122 1982 ft 203 kts 45°
2026-04-29 22:01 -43.62586 172.37333 2001 ft 180 kts 40°
2026-04-29 22:02 -43.61641 172.38426 2023 ft 176 kts 41°
2026-04-29 22:02 -43.60703 172.39515 2009 ft 176 kts 41°
2026-04-29 22:02 -43.59769 172.40602 1999 ft 176 kts 41°
2026-04-29 22:02 -43.58831 172.41692 1990 ft 178 kts 41°
2026-04-29 22:03 -43.57881 172.42797 1989 ft 179 kts 41°
2026-04-29 22:03 -43.56939 172.43890 1983 ft 176 kts 40°
2026-04-29 22:03 -43.56341 172.44584 1903 ft 160 kts 40°
2026-04-29 22:03 -43.55564 172.45488 1680 ft 138 kts 40°
2026-04-29 22:04 -43.54822 172.46349 1481 ft 140 kts 40°
2026-04-29 22:04 -43.54077 172.47214 1301 ft 140 kts 40°
2026-04-29 22:04 -43.53077 172.48371 1058 ft 141 kts 40°
2026-04-29 22:04 -43.52581 172.48941 978 ft 140 kts 39°
2026-04-29 22:05 -43.51842 172.49810 750 ft 140 kts 40°
2026-04-29 22:05 -43.51091 172.50671 528 ft 141 kts 40°
2026-04-29 22:05 -43.49563 172.52444 148 ft 146 kts 40°
2026-04-29 22:06 -43.48842 172.53277 120 ft 119 kts 39°
2026-04-29 22:06 -43.48496 172.53685 114 ft 16 kts 75°
2026-04-29 22:06 -43.48475 172.53838 112 ft 17 kts 72°
2026-04-29 22:06 -43.48468 172.53966 112 ft 11 kts 117°
2026-04-29 22:07 -43.48511 172.54070 113 ft 14 kts 120°
2026-04-29 22:07 -43.48563 172.54163 113 ft 6 kts 130°
2026-04-29 22:07 -43.48606 172.54188 114 ft 9 kts 188°
2026-04-29 22:07 -43.48656 172.54160 113 ft 6 kts 228°
2026-04-29 22:08 -43.48674 172.54135 114 ft 2 kts 226°
2026-04-29 22:08 -43.48674 172.54134 114 ft 0 kts 226°
2026-04-29 22:10 -43.58131 172.42505 1986 ft 179 kts 41°
2026-04-29 22:10 -43.57186 172.43603 1992 ft 177 kts 40°
2026-04-29 22:10 -43.49909 172.52040 235 ft 146 kts 39°
2026-04-29 22:10 -43.49149 172.52924 123 ft 135 kts 40°
2026-04-29 22:11 -43.48558 172.53603 114 ft 59 kts 41°
2026-04-29 22:11 -43.48487 172.53770 113 ft 17 kts 81°
2026-04-29 22:11 -43.48457 172.53924 111 ft 12 kts 95°
2026-04-29 22:11 -43.48469 172.53967 112 ft 11 kts 117°